COSMOS 2251 DEB, 34722

Orbit data source: Space-Track

COSMOS 2251 DEB, 34722 is space debris in LEO originally from a launch on Wed, 16 Jun 1993 UTC launched from the Plesetsk Missile And Space Complex (PKMTR). The debris from Iridium 33, an American commercial communications satellite, has been tracked extensively since its accidental collision with the defunct Russian satellite Cosmos 2251 in 2009. This event, occurring at high speed in low Earth orbit (LEO), generated thousands of pieces of space debris, significantly increasing the risk of further collisions. The Iridium 33 debris cloud has impacted space traffic management and orbital debris mitigation strategies, making it a subject of ongoing study in space situational awareness.

Loading next visibility...
Identifier
34722, 1993-036YQ
Orbit
LEO
Country
Flag of CISCIS
Related business
Manufacturer
Unknown
Mission
Spacecraft
Bus & Motor
Unknown
Mass
Unknown
Launch date (UTC)
1993-06-16 (33 years ago)
Launch vehicle
Unknown
Launch site
Plesetsk Missile And Space Complex (PKMTR)
Object type
Payload
Rocket body
Debris
Shape & HBR
Unknown shape, 0.1 m
Radar Cross Section
Small (<0.1 m²)

Expand to show TLE details & history
Last TLE update: 22 hours ago

TLE from 22 hours ago
0 COSMOS 2251 DEB
1 34722U 93036YQ  26106.44824091  .00001155  00000-0  56654-3 0  9997
2 34722  73.8689 113.6053 0162506  15.3615 136.8160 14.12259417880053
Epoch: 2026-04-16T10:45Z
TLE epoch observation values (Epoch: 2026-04-16T10:45:28.014Z)
Latitude
25.48055°
Longitude
-80.23797°
Altitude
940.958 km
Speed
7.339 km/s
True Right ascension
19h 02m 53s
True Declination
25° 21' 02"
Sunlit
Object was in daylight at epoch
Visualization orbit readout
Latitude
Unknown
Longitude
Unknown
Altitude
Unknown
Speed
Unknown
Apparent Right ascension
Unknown
Apparent Declination
Unknown
Sunlit
N/A
Visualization observer readout
Local Sidereal Time
15:54:05
Azimuth
Unknown
Elevation
Unknown
Doppler factor
Unknown
Orbital elements
Apogee altitude
966.764 km
Perigee altitude
731.863 km
Semi-major axis
7,227.451 km
Eccentricity
0.01625
Inclination
73.8689°
RAAN
113.6053°
Arg. of periapsis
15.3615°
True anomaly
138.07166°
Mean anomaly
136.816°
Eccentric anomaly
137.44569°
Mean motion
3.53236 °/min
Orbital period
101.91 mins
BSTAR
0.00056654
Loading maneuver chart data...
Computing Atmospheric mass density...

Documentation

Showing up to 5 results
|